Regional Weather Roundup
Issued by NWS

Home | Current Version | Previous Version | Text Only | Print | Product List | Glossary On
Versions: 1 2 3 4 5 6 7 8 9 10 11 12 13 14 15 16 17 18 19 20 21 22 23 24 25 26 27 28 29 30 31 32 33 34 35 36 37 38 39 40 41 42 43 44 45 46 47 48 49 50
000
ASUS46 KPQR 100610
RWROR

OREGON REGIONAL WEATHER ROUNDUP
NATIONAL WEATHER SERVICE PORTLAND OR
1000 PM PST FRI DEC 09 2016

NOTE: "FAIR" INDICATES FEW OR NO CLOUDS BELOW 12,000 FEET WITH
NO SIGNIFICANT WEATHER AND/OR OBSTRUCTIONS TO VISIBILITY.

ORZ001>013-100700-
NORTHWEST OREGON


CITY           SKY/WX    TMP DP  RH WIND       PRES   REMARKS
ASTORIA        CLOUDY    44  40  85 SE3       29.83F
6HR MIN TEMP:  42; 6HR MAX TEMP:  45; 6HR PCP:  0.40;

NEWPORT        MOCLDY    48  45  87 W15G21    29.91S
PORTLAND       LGT RAIN  33  31  92 SE9       29.89F FOG     WCI  25
6HR MIN TEMP:  32; 6HR MAX TEMP:  33; 6HR PCP:  0.23;

VANCOUVER WA   LGT RAIN  33  31  92 SE8       29.90S WCI  26
6HR MIN TEMP:  33; 6HR MAX TEMP:  34; 6HR PCP:  0.27;

SCAPPOOSE      LGT RAIN  33  31  92 S5        29.90F WCI  29
6HR MIN TEMP:  32; 6HR MAX TEMP:  33; 6HR PCP:  0.36;

HILLSBORO      LGT RAIN  33  32  96 CALM      29.88S FOG
6HR MIN TEMP:  33; 6HR MAX TEMP:  35; 6HR PCP:  0.22;

AURORA         LGT RAIN  37  37 100 CALM      29.89F FOG
6HR MIN TEMP:  35; 6HR MAX TEMP:  37; 6HR PCP:  0.28;

MCMINNVILLE    LGT RAIN  35  34  96 CALM      29.89R FOG
6HR MIN TEMP:  34; 6HR MAX TEMP:  35; 6HR PCP:  0.31;

SALEM          LGT RAIN  47  44  90 SW10      29.87S
6HR MIN TEMP:  39; 6HR MAX TEMP:  48; 6HR PCP:  0.24;

CORVALLIS        N/A     48  45  87 SW6       29.89S
EUGENE         LGT RAIN  46  44  93 S8        29.91R
6HR MIN TEMP:  46; 6HR MAX TEMP:  48; 6HR PCP:  0.06;

$$

ORZ021-028-100700-
SOUTHWEST OREGON


CITY           SKY/WX    TMP DP  RH WIND       PRES   REMARKS
NORTH BEND     CLOUDY    52  50  93 SW5       29.94S
6HR MIN TEMP:  48; 6HR MAX TEMP:  52; 6HR PCP:  0.50;

BROOKINGS      HVY RAIN  50  49  96 NW5       29.97S
ROSEBURG       LGT RAIN  46  45  96 E3        29.93F
6HR MIN TEMP:  46; 6HR MAX TEMP:  49; 6HR PCP:  0.38;

SEXTON SUMMIT  LGT RAIN  38  37  97 SW12      29.91S VSB 1/2 WCI  30
6HR MIN TEMP:  37; 6HR MAX TEMP:  38; 6HR PCP:  0.53;

MEDFORD        LGT RAIN  46  46 100 NE5       29.96F FOG
6HR MIN TEMP:  46; 6HR MAX TEMP:  49; 6HR PCP:  0.25;

$$

ORZ014>016-041-100700-
COLUMBIA GORGE


CITY           SKY/WX    TMP DP  RH WIND       PRES   REMARKS
TROUTDALE      FRZ RAIN  32  30  92 E15G29    29.90S WCI  22
6HR MIN TEMP:  32; 6HR MAX TEMP:  33; 6HR PCP:  0.17;

THE DALLES     LGT SNOW  27  24  89 CALM      30.05F FOG
6HR MIN TEMP:  26; 6HR MAX TEMP:  28; 6HR PCP:  0.02;

$$

ORZ029>031-041-044-049-050-061>064-502-503-505>511-100700-
EASTERN OREGON


CITY           SKY/WX    TMP DP  RH WIND       PRES   REMARKS
REDMOND        CLOUDY    38  32  79 S12       29.84F WCI  30
6HR MIN TEMP:  25; 6HR MAX TEMP:  39;

BEND           LGT RAIN  39  34  81 SW14G22   29.84F WCI  31
PRINEVILLE     CLOUDY    41  36  81 SW10G17   29.85F
KLAMATH FALLS  LGT RAIN  37  37 100 CALM      29.94F FOG
6HR MIN TEMP:  37; 6HR MAX TEMP:  43; 6HR PCP:  0.19;

LAKEVIEW       CLOUDY    37  34  87 S10       29.98F WCI  30
HERMISTON      MOCLDY    23  21  92 CALM      30.01F
6HR MIN TEMP:  23; 6HR MAX TEMP:  26; 6HR PCP: TRACE;

PENDLETON      CLOUDY    22  19  89 E6        29.94F WCI  14
6HR MIN TEMP:  21; 6HR MAX TEMP:  22; 6HR PCP: TRACE;

JOHN DAY       LGT RAIN  38  36  91 CALM      29.88F
MEACHAM        LGT SNOW  32  28  85 CALM      29.85F FOG
6HR MIN TEMP:  30; 6HR MAX TEMP:  32; 6HR PCP:  0.09;

LA GRANDE      CLOUDY    34  23  64 S9        29.90F WCI  26
6HR MIN TEMP:  30; 6HR MAX TEMP:  34;

BAKER CITY     LGT SNOW  25  24  96 CALM      29.94F FOG
6HR MIN TEMP:  24; 6HR MAX TEMP:  25; 6HR PCP:  0.01;

BURNS          LGT RAIN  33  32  96 SE3       29.93F FOG
6HR MIN TEMP:  32; 6HR MAX TEMP:  34; 6HR PCP:  0.10;

ROME             N/A     44  40  85 S9        29.95R
6HR MIN TEMP:  34; 6HR MAX TEMP:  49; 6HR PCP:  0.08;

ONTARIO        FRZ RAIN  30  27  88 CALM      30.04F FOG
6HR MIN TEMP:  29; 6HR MAX TEMP:  30; 6HR PCP:  0.13;

$$



USA.gov is the U.S. government's official web portal to all federal, state and local government web resources and services.